Location: Tel Aviv
(32.0670°N, 34.7670°E)
Time: 03:22:13
(UTC+03:00)

Vanguard 2 - Pass Details

Date: 24 January 2022
Orbit: 552 x 2935 km, 32.9° (Epoch: 26 May)

Event Time Altitude Azimuth Distance (km) Brightness Sun altitude
Rises 00:53:15 0° 284° (WNW) 5,730 - -71.4°
Reaches altitude 10° 00:56:35 10° 283° (WNW) 4,974 - -70.8°
Maximum altitude 01:12:09 74° 202° (SSW) 2,962 - -68.1°
Exits shadow 01:24:50 25° 124° (SE) 4,545 11.4 -65.7°
Drops below altitude 10° 01:29:52 10° 121° (ESE) 5,559 12.0 -64.8°
Sets 01:33:51 0° 119° (ESE) 6,405 12.4 -64.0°
